Location: Newark
(49.8348°N, 24.0280°E)
Time: 10:21:18
(UTC+00:00)

Explorer 7 - Pass Details

Date: 23 January 2020
Orbit: 485 x 679 km, 50.3° (Epoch: 23 February)

Event Time Altitude Azimuth Distance (km) Brightness Sun altitude
Rises 00:04:08 0° 260° (W) 2,546 - -55.0°
Reaches altitude 10° 00:06:17 10° 261° (W) 1,670 - -54.8°
Maximum altitude 00:10:03 89° 354° (N) 499 - -54.4°
Drops below altitude 10° 00:13:55 10° 82° (E) 1,720 - -54.0°
Sets 00:16:10 0° 82° (E) 2,631 - -53.7°
